[[{"header":{"parameterUnit":"m.s-1","parameterCategory":1,"la1":30.2991,"la2":30.254,"lo1":-89.0895,"lo2":-89.0444,"dy":0.0017,"dx":0.0017,"nx":28,"ny":28,"refTime":"2023-10-29T09:00:00:Z","depth":0,"parameterNumber":2,"parameterNumberName":"U-component_of_WINDS"},"data":[0,0,0,0,0,0,0,0,0,0,0,0,0,0,0,0,0,0,0,0,0,0,0,0,0,0,0,0,0,0,0,0,0,0,0,0,0,0,0,0,0,0,0,0,0,0,0,0,0,0,0,0,0,0,0,0,0,0,0.6878,0.6878,0,0.6856,0.6856,0.6856,0.6835,0.6835,0.6834,0.6834,0.6813,0.6812,0.6812,0,0,0,0,0,0,0,0,0,0,0,0,0,0.6905,0.6905,0.6879,0.6878,0.6878,0.6856,0.6856,0.6856,0.6835,0.6835,0.6834,0.6834,0.6813,0.6812,0.6812,0,0,0,0,0,0,0,0,0,0,0,0,0,0.6889,0.6904,0.6879,0.6865,0.6864,0.6856,0.6856,0.6856,0.6835,0.6835,0.6834,0.6834,0.6813,0.6812,0.6812,0.6817,0,0,0.681,0.681,0,0,0,0,0,0,0,0,0.689,0.6888,0.6867,0.6866,0.6864,0.6848,0.6857,0.6843,0.6835,0.6846,0.6834,0.6834,0.6825,0.6823,0.682,0.6816,0.6815,0.681,0.681,0.681,0.681,0,0,0,0,0,0,0,0.6891,0.6889,0.687,0.6867,0.6865,0.6861,0.6858,0.6854,0.6838,0.6845,0.6843,0.6841,0.6824,0.682,0.6819,0.6814,0.681,0.681,0.681,0.6809,0.6814,0.6814,0,0,0,0,0,0,0.6894,0.689,0.687,0.6869,0.6876,0.6861,0.6857,0.6854,0.6838,0.6835,0.6841,0.684,0.6822,0.682,0.6818,0.6824,0.681,0.6809,0.6809,0.6814,0.6814,0.6815,0,0,0,0,0,0,0.6895,0.6893,0.6871,0.6879,0.6876,0.686,0.6856,0.6853,0.685,0.6835,0.6832,0.6841,0.6821,0.6819,0.6817,0.6823,0.6809,0.6809,0.6813,0.6814,0.6814,0.6834,0,0,0,0,0,0,0.6896,0.6893,0.6894,0.6879,0.6876,0.687,0.6857,0.6853,0.6849,0.6847,0.6834,0.6831,0.6821,0.6818,0.6817,0.6822,0.6808,0.6813,0.6813,0.6814,0.6833,0.6835,0.6837,0,0,0,0,0,0.6897,0.69,0.6894,0.6892,0.6877,0.687,0.6868,0.6856,0.6849,0.6851,0.6842,0.6832,0.6822,0.6818,0.6817,0.6821,0.6812,0.6813,0.6814,0.6832,0.6835,0.6837,0,0,0,0,0,0,0.6916,0.6898,0.6891,0.689,0.6882,0.6867,0.6868,0.6859,0.6853,0.6852,0.6837,0.6834,0.6834,0.6827,0.6823,0.6826,0.6816,0.6817,0.683,0.6833,0.6835,0.6836,0.6808,0,0,0,0,0,0.692,0.6916,0.6901,0.6902,0.6898,0.6884,0.6881,0.6872,0.6863,0.6859,0.685,0.6842,0.6837,0.6835,0.6829,0.6832,0.6829,0.6834,0.6836,0.6838,0.6839,0.6841,0.6843,0.6818,0.6818,0.6818,0,0,0.6929,0.6919,0.6917,0.6905,0.6898,0.6895,0.6881,0.6878,0.6876,0.6859,0.6857,0.685,0.684,0.6841,0.684,0.6835,0.6846,0.684,0.6841,0.6841,0.6842,0.6845,0.6847,0.6818,0.6818,0.6818,0,0,0.6943,0.6934,0.6934,0.6927,0.6917,0.6907,0.6908,0.6894,0.6889,0.6886,0.6874,0.6872,0.6864,0.6858,0.6853,0.6867,0.6858,0.6865,0.6877,0.6879,0.6881,0.6883,0.6888,0.689,0.6866,0.6866,0.6866,0,0.6955,0.6949,0.6936,0.6933,0.6929,0.6914,0.6915,0.6909,0.6897,0.6895,0.6889,0.6879,0.6872,0.6871,0.6875,0.6871,0.6872,0.6867,0.6882,0.6883,0.6885,0.689,0.6892,0.6867,0.6867,0.6867,0.6867,0,0.6965,0.6961,0.6963,0.6952,0.6948,0.6947,0.6934,0.6932,0.6924,0.6915,0.6914,0.6904,0.6897,0.6897,0.6888,0.6895,0.6892,0.6884,0.6874,0.6889,0.6893,0.6895,0.6869,0.6869,0.6868,0.6868,0,0,0.699,0.6972,0.6973,0.6968,0.6956,0.6953,0.6952,0.6945,0.6944,0.6937,0.6936,0.693,0.6923,0.6919,0.691,0.6912,0.6924,0.6904,0.6903,0.6908,0.6932,0.6938,0.694,0.6918,0.6918,0.6918,0.6933,0,0.7002,0.6999,0.6988,0.6988,0.6985,0.6972,0.6971,0.6964,0.6956,0.6953,0.6945,0.6942,0.6932,0.6929,0.693,0.6922,0.6928,0.6921,0.6918,0.6918,0.6921,0.6943,0.6949,0.6963,0.6934,0.6935,0.6935,0,0.7016,0.701,0.701,0.6999,0.6997,0.6997,0.699,0.6987,0.6979,0.6974,0.6969,0.696,0.6959,0.695,0.6949,0.6944,0.6942,0.6938,0.6938,0.6938,0.6927,0.6943,0.6967,0.6969,0.6937,0.6937,0.6937,0,0.7035,0.7027,0.7026,0.7022,0.7009,0.7009,0.7004,0.6995,0.6992,0.6987,0.6985,0.698,0.6977,0.6973,0.6963,0.6957,0.6964,0.6953,0.696,0.696,0.6962,0.6962,0.6986,0.696,0.696,0.696,0.696,0,0.705,0.7051,0.7035,0.7034,0.7035,0.7023,0.7024,0.7018,0.7011,0.7009,0.6997,0.6996,0.6983,0.698,0.6972,0.6973,0.6972,0.6968,0.6966,0.697,0.697,0.6968,0.6967,0.696,0.696,0.696,0.696,0,0.7071,0.706,0.7059,0.7046,0.7044,0.7045,0.7035,0.7035,0.7027,0.7025,0.7024,0.7012,0.7009,0.6999,0.6993,0.6988,0.6992,0.6987,0.6994,0.6993,0.7,0.7,0.7025,0.7028,0.6999,0.7,0.7,0,0.7081,0.7082,0.707,0.7068,0.7063,0.7061,0.7058,0.7046,0.7043,0.7035,0.7036,0.7032,0.7028,0.7024,0.7015,0.7011,0.7007,0.7016,0.7006,0.701,0.7008,0.7008,0.7008,0.7018,0.7018,0.7019,0.7019,0,0.7101,0.7096,0.7092,0.7087,0.7084,0.7079,0.7074,0.7073,0.706,0.7058,0.7055,0.7052,0.7046,0.7043,0.7038,0.7033,0.7024,0.7022,0.7024,0.7027,0.7031,0.703,0.7,0.7022,0.7021,0.7021,0.7021,0.7021,0.7117,0.7118,0.711,0.7106,0.7101,0.7097,0.7096,0.7089,0.7086,0.708,0.7073,0.7071,0.7065,0.7056,0.7052,0.7051,0.7046,0.7048,0.7048,0.7049,0.7051,0.7032,0.705,0.705,0.705,0.705,0.705,0,0.7137,0.7132,0.7129,0.7122,0.7119,0.7111,0.7105,0.7104,0.7102,0.7096,0.7093,0.709,0.7087,0.7078,0.7075,0.7075,0.7071,0.7075,0.7075,0.7074,0.7055,0.7055,0.7078,0.7078,0.7078,0.7078,0.7078,0.7078,0.7147,0.7148,0.7142,0.714,0.7134,0.7132,0.713,0.7126,0.7121,0.7119,0.7116,0.711,0.7104,0.71,0.7097,0.7094,0.7094,0.7099,0.7095,0.7078,0.7075,0.7073,0.7072,0.7098,0.7099,0.7114,0.7114,0.7114]},{"header":{"parameterUnit":"m.s-1","parameterCategory":1,"la1":30.2991,"la2":30.254,"lo1":-89.0895,"lo2":-89.0444,"dy":0.0017,"dx":0.0017,"nx":28,"ny":28,"refTime":"2023-10-29T09:00:00:Z","depth":0,"parameterNumber":3,"parameterNumberName":"V-component_of_WINDS"},"data":[0,0,0,0,0,0,0,0,0,0,0,0,0,0,0,0,0,0,0,0,0,0,0,0,0,0,0,0,0,0,0,0,0,0,0,0,0,0,0,0,0,0,0,0,0,0,0,0,0,0,0,0,0,0,0,0,0,0,-1.8161,-1.816,0,-1.8019,-1.8017,-1.8015,-1.8025,-1.8027,-1.8029,-1.8031,-1.7887,-1.7881,-1.7875,0,0,0,0,0,0,0,0,0,0,0,0,0,-1.8447,-1.8442,-1.8161,-1.8159,-1.8158,-1.8019,-1.8017,-1.8015,-1.8025,-1.8027,-1.803,-1.8032,-1.7888,-1.7882,-1.7875,0,0,0,0,0,0,0,0,0,0,0,0,0,-1.8315,-1.844,-1.8161,-1.8146,-1.8143,-1.8019,-1.8017,-1.8014,-1.8024,-1.8027,-1.8031,-1.8034,-1.7891,-1.7882,-1.7874,-1.7757,0,0,-1.7847,-1.7843,0,0,0,0,0,0,0,0,-1.8323,-1.8305,-1.815,-1.8147,-1.8143,-1.8043,-1.8065,-1.7928,-1.8023,-1.8069,-1.8031,-1.8035,-1.7936,-1.7924,-1.789,-1.775,-1.7744,-1.7846,-1.7841,-1.7837,-1.7835,0,0,0,0,0,0,0,-1.8332,-1.8311,-1.8105,-1.8148,-1.8144,-1.8148,-1.8132,-1.8039,-1.7987,-1.8066,-1.8066,-1.8049,-1.7935,-1.7899,-1.7887,-1.7742,-1.7847,-1.7839,-1.7833,-1.783,-1.7506,-1.7503,0,0,0,0,0,0,-1.8344,-1.8319,-1.8109,-1.8101,-1.8243,-1.814,-1.8123,-1.8072,-1.7988,-1.7978,-1.8046,-1.805,-1.7912,-1.7897,-1.7882,-1.7744,-1.7837,-1.7829,-1.7824,-1.7509,-1.7505,-1.7501,0,0,0,0,0,0,-1.835,-1.8325,-1.8115,-1.821,-1.8183,-1.8132,-1.8074,-1.8067,-1.8031,-1.7973,-1.7964,-1.8018,-1.7914,-1.7894,-1.7789,-1.7739,-1.7825,-1.7817,-1.7513,-1.7508,-1.7503,-1.7465,0,0,0,0,0,0,-1.8358,-1.8327,-1.8281,-1.8209,-1.8178,-1.8023,-1.8071,-1.8062,-1.8016,-1.8019,-1.7945,-1.7936,-1.7915,-1.7802,-1.7781,-1.7729,-1.781,-1.7517,-1.7511,-1.7505,-1.747,-1.7459,-1.7449,0,0,0,0,0,-1.8369,-1.8274,-1.8278,-1.8253,-1.8119,-1.802,-1.8003,-1.798,-1.8012,-1.7966,-1.793,-1.7938,-1.7748,-1.7791,-1.7767,-1.7712,-1.752,-1.7513,-1.7505,-1.7475,-1.7461,-1.7449,0,0,0,0,0,0,-1.8341,-1.8264,-1.8268,-1.8147,-1.809,-1.8022,-1.7963,-1.7966,-1.7898,-1.7904,-1.788,-1.7863,-1.7759,-1.7725,-1.7775,-1.7598,-1.7639,-1.7626,-1.7624,-1.761,-1.76,-1.7611,-1.7803,0,0,0,0,0,-1.8321,-1.8246,-1.8184,-1.8083,-1.8055,-1.8014,-1.797,-1.7958,-1.7898,-1.7874,-1.783,-1.7772,-1.7701,-1.7653,-1.7583,-1.7465,-1.7452,-1.7416,-1.7405,-1.7397,-1.7387,-1.7328,-1.7312,-1.7476,-1.7476,-1.7477,0,0,-1.8278,-1.8227,-1.8181,-1.8077,-1.8031,-1.7957,-1.7993,-1.7911,-1.7857,-1.7862,-1.7761,-1.7727,-1.7662,-1.7552,-1.7501,-1.752,-1.7339,-1.7387,-1.7381,-1.7375,-1.7318,-1.7303,-1.7289,-1.7471,-1.7472,-1.7473,0,0,-1.8163,-1.8115,-1.8029,-1.7984,-1.7916,-1.789,-1.787,-1.7802,-1.778,-1.7679,-1.7683,-1.7619,-1.7493,-1.7448,-1.7409,-1.7284,-1.7291,-1.7262,-1.7207,-1.715,-1.7137,-1.7126,-1.7086,-1.7071,-1.7252,-1.7251,-1.7251,0,-1.8119,-1.8006,-1.7985,-1.7904,-1.786,-1.7863,-1.7778,-1.7735,-1.7647,-1.7618,-1.764,-1.7487,-1.7443,-1.7325,-1.7296,-1.7262,-1.7241,-1.727,-1.7141,-1.7129,-1.7118,-1.7079,-1.7064,-1.7249,-1.7249,-1.7249,-1.725,0,-1.7958,-1.7879,-1.7818,-1.7736,-1.7685,-1.7602,-1.7571,-1.7522,-1.7517,-1.749,-1.739,-1.7338,-1.726,-1.7231,-1.7223,-1.7114,-1.7128,-1.7146,-1.7187,-1.71,-1.7064,-1.7048,-1.7245,-1.7246,-1.7247,-1.7247,0,0,-1.7818,-1.7729,-1.7707,-1.7672,-1.7599,-1.7539,-1.7459,-1.7384,-1.7345,-1.7285,-1.722,-1.7117,-1.7135,-1.7091,-1.7079,-1.7028,-1.6939,-1.7053,-1.7051,-1.7037,-1.6821,-1.681,-1.6793,-1.6943,-1.694,-1.6937,-1.6828,0,-1.7699,-1.7556,-1.7537,-1.7412,-1.7342,-1.7347,-1.7278,-1.7227,-1.7201,-1.714,-1.7112,-1.7041,-1.7067,-1.7042,-1.6992,-1.696,-1.6896,-1.6968,-1.6885,-1.6882,-1.6903,-1.6773,-1.6759,-1.6658,-1.6813,-1.681,-1.6808,0,-1.7539,-1.7478,-1.7346,-1.7288,-1.7259,-1.7196,-1.713,-1.707,-1.7015,-1.7,-1.6954,-1.6949,-1.687,-1.6915,-1.6807,-1.6857,-1.6823,-1.6803,-1.6798,-1.6791,-1.6841,-1.6765,-1.6624,-1.661,-1.6785,-1.6787,-1.6788,0,-1.7456,-1.734,-1.7248,-1.7217,-1.7146,-1.7104,-1.7073,-1.7021,-1.6979,-1.692,-1.6894,-1.6827,-1.6791,-1.6741,-1.672,-1.6753,-1.6616,-1.6657,-1.6605,-1.6605,-1.6576,-1.6578,-1.6431,-1.655,-1.655,-1.655,-1.655,0,-1.7326,-1.7246,-1.7211,-1.7154,-1.7066,-1.7047,-1.6962,-1.6932,-1.6887,-1.6827,-1.6826,-1.6771,-1.6746,-1.6687,-1.6671,-1.6588,-1.657,-1.6559,-1.6556,-1.656,-1.6562,-1.6538,-1.6546,-1.6546,-1.6547,-1.6548,-1.6548,0,-1.7218,-1.719,-1.7091,-1.7034,-1.7018,-1.6956,-1.6908,-1.6855,-1.6832,-1.6756,-1.6738,-1.6701,-1.6632,-1.6607,-1.6523,-1.6513,-1.6418,-1.6419,-1.6436,-1.6436,-1.6386,-1.6393,-1.622,-1.6198,-1.6329,-1.6328,-1.6327,0,-1.7137,-1.7076,-1.7014,-1.6975,-1.6942,-1.6877,-1.6836,-1.6817,-1.6774,-1.671,-1.6666,-1.6598,-1.6542,-1.6433,-1.64,-1.6338,-1.634,-1.6284,-1.633,-1.6338,-1.6343,-1.6348,-1.6344,-1.6275,-1.6274,-1.6273,-1.6272,0,-1.6999,-1.699,-1.693,-1.6866,-1.6817,-1.6766,-1.6716,-1.6684,-1.6658,-1.661,-1.6541,-1.6498,-1.6415,-1.6349,-1.6286,-1.6256,-1.6261,-1.6258,-1.6243,-1.6248,-1.6262,-1.6258,-1.6416,-1.6262,-1.6263,-1.6264,-1.6264,-1.6265,-1.6905,-1.6853,-1.6803,-1.6738,-1.6699,-1.6654,-1.6603,-1.6575,-1.6517,-1.6447,-1.644,-1.6367,-1.6319,-1.6235,-1.6203,-1.6147,-1.6163,-1.614,-1.6135,-1.613,-1.6129,-1.6269,-1.6135,-1.6135,-1.6136,-1.6136,-1.6136,0,-1.677,-1.6739,-1.6679,-1.6612,-1.6561,-1.6571,-1.6518,-1.6476,-1.6411,-1.6366,-1.6313,-1.6236,-1.6174,-1.6138,-1.6076,-1.6039,-1.604,-1.6024,-1.6028,-1.6022,-1.6116,-1.6137,-1.6024,-1.6024,-1.6024,-1.6025,-1.6025,-1.6025,-1.6694,-1.6609,-1.6595,-1.6493,-1.6463,-1.6391,-1.6361,-1.6321,-1.6286,-1.62,-1.6149,-1.6126,-1.6086,-1.6023,-1.5967,-1.5959,-1.5938,-1.592,-1.5914,-1.6003,-1.6014,-1.6025,-1.6045,-1.5915,-1.5915,-1.5824,-1.5823,-1.5823]}]]